GFSSGP_250_rhum_267.txt.gz
RH
78 54 30 44 89 49 60 100 84 58 33 65 73 55 51 55 46 42 29 33 22 20 17 16 20 17 13 14 14 14 12 16 21 24 23 21 14 13 15 14 15 15 15 14 14 17 16 14 13
92 72 45 34 50 37 45 95 100 79 52 58 60 82 86 57 69 52 36 41 34 25 22 18 15 22 23 12 12 13 15 17 22 26 28 27 26 21 17 13 12 13 13 12 14 14 15 16 17
100 87 84 74 65 63 50 51 94 100 98 84 56 81 83 84 45 78 62 40 45 33 26 24 19 14 19 26 14 12 14 17 22 28 32 30 28 31 27 24 21 15 13 12 12 13 12 14 18
86 100 95 100 78 100 63 43 42 91 54 80 97 43 50 100 82 57 91 58 61 49 34 27 25 23 17 20 27 18 17 14 15 15 19 21 30 37 38 36 33 33 19 13 11 12 15 15 14
88 98 100 97 96 99 95 67 54 60 64 97 87 70 34 86 100 43 92 100 50 79 56 41 32 27 26 17 26 25 24 21 14 14 15 15 16 18 23 27 28 37 34 24 16 14 14 20 19
96 81 78 76 89 59 96 100 80 72 75 85 100 72 67 87 93 55 50 67 77 67 92 72 65 46 28 22 21 26 25 25 34 24 20 18 18 19 18 20 22 22 24 27 25 23 16 16 17
54 47 52 45 64 61 58 56 74 100 99 87 74 90 84 89 100 71 60 54 84 91 73 73 81 68 52 42 28 33 40 30 32 34 29 24 19 17 18 20 21 21 24 26 26 28 24 18 18
73 52 39 71 100 100 100 85 74 82 80 84 77 64 72 81 82 100 81 69 49 98 100 36 95 100 83 66 61 44 42 52 50 47 39 32 34 32 28 23 21 21 21 23 24 26 28 27 23
93 78 92 100 100 100 100 100 100 100 98 95 90 76 79 81 85 74 80 71 72 70 59 41 66 100 100 90 80 75 65 52 73 65 57 44 41 43 37 32 27 26 25 22 23 23 26 30 33
60 47 52 64 87 100 84 87 99 90 94 100 100 99 86 92 70 55 56 75 51 53 56 47 68 100 100 95 95 100 95 80 63 84 91 72 66 68 56 48 45 39 32 28 23 24 23 23 24
88 78 91 79 64 64 54 49 62 83 79 94 100 100 100 99 98 92 86 82 57 33 40 57 56 88 98 100 93 92 99 100 86 70 68 96 100 99 91 85 74 67 54 55 44 28 26 23 25
100 88 100 81 70 69 61 54 63 80 78 66 77 99 100 100 88 86 90 82 74 54 40 63 58 69 61 58 74 100 93 90 100 91 78 72 64 86 100 95 90 92 93 87 78 63 56 41 27
91 97 100 100 90 65 63 64 64 63 64 58 60 56 63 79 98 91 84 86 73 70 77 69 72 66 68 67 73 100 64 100 100 100 100 84 83 80 87 92 93 90 100 94 100 100 94 85 81
91 88 78 62 56 56 49 62 46 47 52 52 40 41 43 41 54 66 69 70 82 82 76 84 85 72 70 66 51 83 86 100 86 100 100 100 100 100 100 99 87 78 63 74 71 100 100 100 99
78 74 80 82 68 56 40 63 46 45 44 50 45 38 30 32 37 43 55 63 72 86 82 69 74 89 93 84 57 53 60 67 70 74 96 96 100 100 100 100 100 100 91 74 62 62 84 100 100
60 59 61 58 51 47 44 46 43 42 42 42 46 46 42 43 42 48 54 63 76 92 98 80 69 73 78 98 92 61 55 84 75 56 80 100 100 100 100 100 100 100 100 100 92 69 65 75 86
65 46 42 56 48 49 44 47 50 45 44 46 53 48 46 44 45 43 44 52 69 99 100 98 100 95 85 82 100 90 71 67 72 53 90 99 100 100 100 100 100 100 100 100 99 88 82 79 78
71 57 55 61 99 69 63 63 70 66 60 57 62 57 53 51 48 47 46 41 50 64 79 97 100 100 100 100 100 100 94 78 90 100 97 81 88 96 86 100 100 100 100 98 100 84 83 92 76
72 71 77 85 88 99 72 69 73 73 69 66 61 58 65 78 79 72 57 55 54 59 69 86 92 84 91 100 100 100 100 100 96 86 100 100 100 84 83 99 100 90 100 100 100 100 86 72 63
79 81 80 79 86 89 82 73 72 74 72 66 59 68 76 89 100 97 86 73 60 60 62 77 90 91 95 100 100 100 100 100 100 100 100 100 100 100 100 100 100 100 100 100 100 100 100 82 65
84 86 88 78 86 79 71 62 53 54 55 66 88 100 100 100 100 100 98 94 86 81 76 98 100 98 100 100 100 100 100 100 100 100 100 100 100 100 100 100 100 100 100 100 100 93 81 69 62
70 80 76 75 70 63 71 48 41 43 56 67 72 100 100 100 100 100 100 100 100 100 97 100 100 100 100 100 100 100 100 100 100 100 100 100 100 100 97 100 100 100 100 100 99 88 78 79 70
63 67 64 62 58 51 42 45 43 67 61 83 71 89 100 100 100 92 100 100 100 100 100 100 100 100 100 100 100 100 100 100 100 100 100 100 100 100 100 100 100 100 100 96 91 92 100 87 83
46 45 50 47 44 39 38 46 35 45 73 66 100 100 96 90 100 100 100 100 100 100 100 100 100 100 100 100 100 100 100 100 100 100 100 100 100 100 100 100 100 100 100 92 81 84 82 90 87
47 40 37 33 32 32 28 28 26 44 59 88 84 85 97 86 77 82 68 85 100 100 100 100 100 100 100 100 100 100 100 100 100 99 98 100 100 100 100 100 100 96 94 88 81 76 87 93 82
38 37 39 35 32 38 41 27 36 47 70 91 99 82 59 38 51 71 70 59 100 100 100 100 100 100 100 100 100 100 100 100 100 100 95 100 100 100 100 100 100 100 99 96 100 100 100 97 100
41 35 33 32 27 23 22 28 27 53 62 86 84 81 66 49 46 54 68 100 100 100 100 100 100 100 100 100 100 100 100 100 100 100 100 92 99 100 100 100 100 100 100 100 100 100 100 99 80
32 29 25 20 17 17 17 20 21 24 22 31 38 40 41 48 66 65 59 70 92 100 100 100 100 100 100 100 100 100 100 100 100 100 100 100 100 100 100 100 100 100 100 100 96 92 100 96 77
24 22 22 16 15 16 13 13 11 9 10 10 12 12 12 29 79 100 99 92 93 100 100 100 100 100 100 99 96 95 100 100 100 100 100 100 100 100 100 100 100 100 93 94 97 100 100 97 86
11 11 11 9 10 8 8 8 12 9 8 8 10 10 11 29 100 100 100 100 100 100 100 100 94 100 100 89 76 92 79 100 100 100 100 100 100 100 100 100 100 95 98 100 100 100 92 78 76

GFSSGP_250_rhum_270.txt.gz
RH
94 85 66 60 50 61 46 46 67 63 75 58 42 39 100 47 24 44 36 40 52 31 39 32 26 17 17 15 19 15 12 12 15 18 17 22 24 18 13 11 12 13 13 12 11 11 11 12 13
74 86 83 61 78 71 71 39 61 70 58 71 70 44 100 57 43 30 54 33 58 64 45 54 34 22 22 16 15 19 19 13 13 13 12 16 19 23 23 18 16 14 13 12 11 10 10 10 12
100 97 81 75 65 62 54 68 62 83 98 91 79 73 72 72 52 53 49 41 56 58 59 70 59 40 22 21 21 18 22 19 15 15 15 14 15 17 20 22 23 22 18 14 13 12 13 12 12
88 75 87 66 72 64 60 62 63 75 89 72 85 73 91 87 78 80 72 65 76 72 30 51 86 68 42 24 28 25 26 35 18 17 18 18 17 16 15 15 18 21 24 23 20 16 14 18 17
72 74 57 82 85 81 96 92 93 100 76 81 68 64 70 70 83 92 85 68 72 96 39 33 72 87 84 38 34 35 31 35 39 31 23 22 18 18 18 19 16 16 21 24 25 26 22 17 19
88 100 95 91 100 100 100 100 100 100 84 66 63 69 68 63 72 66 70 70 58 67 58 41 65 74 95 83 71 66 50 38 34 42 35 34 34 29 25 23 21 18 18 17 19 23 26 24 18
100 92 72 63 47 87 100 98 87 86 57 54 63 75 71 91 86 64 65 75 70 58 54 63 59 77 100 62 40 78 80 67 57 42 35 41 39 45 37 32 30 29 24 22 19 20 19 21 22
95 70 59 50 56 54 99 95 88 72 71 51 66 69 69 72 80 72 57 59 80 76 54 52 65 65 97 72 52 49 54 63 66 58 55 47 45 53 57 49 50 44 41 34 31 29 24 22 20
100 100 100 99 94 100 98 98 88 88 90 85 75 71 70 64 67 72 66 60 57 53 61 70 64 63 66 61 72 83 53 66 81 52 72 74 65 63 76 73 60 55 58 58 56 40 34 29 25
77 70 87 100 100 100 100 78 77 73 71 68 64 62 56 55 51 48 44 41 45 51 49 49 54 51 69 68 69 68 100 63 100 100 94 62 80 69 66 69 77 72 62 78 74 72 64 62 44
100 94 99 68 59 73 76 60 48 49 46 47 45 44 44 42 42 42 44 43 39 46 52 54 53 58 56 70 59 71 80 74 86 84 95 100 100 94 72 90 72 70 64 60 68 80 90 90 84
97 100 99 95 80 58 62 52 64 60 38 52 61 52 47 46 42 41 42 47 44 47 46 52 72 77 60 67 71 70 84 73 58 56 83 87 100 100 100 100 100 88 87 75 65 51 62 80 85
59 70 91 79 52 55 63 63 66 64 57 53 46 47 50 54 56 54 51 48 47 46 46 43 53 75 81 70 81 80 74 87 77 55 48 43 78 100 100 100 100 100 100 88 59 59 58 54 61
73 80 58 60 53 46 46 54 48 45 48 51 50 52 51 54 60 62 55 51 49 48 47 48 48 53 63 66 79 83 87 96 86 79 69 51 43 71 100 99 99 82 100 100 90 74 70 66 64
83 76 79 85 63 60 64 60 60 51 54 59 56 60 66 74 72 67 62 60 57 55 51 47 50 53 54 53 67 86 98 95 98 99 95 80 63 61 77 100 99 100 89 100 97 100 74 66 76
80 72 71 77 70 71 66 67 77 64 64 62 68 81 84 92 89 80 72 68 67 68 68 62 57 61 63 62 71 82 87 97 95 100 100 100 99 91 75 88 95 95 90 100 100 100 100 83 58
81 67 69 79 88 81 70 75 98 77 72 75 84 92 96 94 98 94 85 83 83 85 87 82 72 65 66 71 89 88 93 90 92 100 100 100 100 100 98 95 94 98 100 100 100 98 100 97 67
65 64 57 58 80 84 62 59 69 90 82 84 88 96 100 100 97 91 85 81 84 90 100 100 93 88 86 97 90 91 97 98 100 100 100 100 100 100 100 100 100 100 100 100 100 91 84 96 85
58 57 59 62 66 68 76 56 71 93 100 98 91 91 88 85 92 84 73 79 80 75 78 78 88 99 100 100 100 100 100 100 100 100 100 100 100 100 100 100 100 100 97 90 86 93 100 84 68
49 49 53 54 56 56 60 49 65 77 87 97 100 94 87 87 100 92 80 78 82 82 76 78 86 100 100 100 100 100 100 100 100 100 100 100 100 100 100 100 100 97 86 87 88 90 100 100 88
41 43 45 46 49 52 49 46 61 72 68 79 77 78 76 82 85 69 56 62 71 79 89 100 100 100 100 100 100 100 100 100 100 100 100 100 90 100 99 100 100 100 100 100 100 100 100 98 94
38 41 37 38 38 40 43 38 41 58 62 61 61 48 48 45 48 57 54 51 59 77 100 100 100 100 100 100 100 100 100 100 100 100 100 100 91 100 100 100 100 100 100 100 100 100 100 97 85
45 40 35 31 30 30 30 32 32 48 53 63 52 40 39 41 38 42 45 50 51 78 95 100 100 100 100 100 100 100 100 100 100 100 100 100 100 100 88 100 100 100 74 88 90 99 100 98 95
44 38 33 26 24 24 28 31 28 53 67 56 42 36 30 29 27 32 32 42 48 68 95 100 100 100 100 100 100 100 100 100 100 100 100 100 100 100 100 100 100 100 100 100 100 100 100 100 90
27 21 19 18 21 24 26 21 39 50 39 31 29 26 27 26 28 28 34 37 63 55 92 100 100 100 100 100 100 100 100 100 100 100 100 99 100 99 100 100 100 100 100 100 100 100 100 88 76
29 27 22 17 19 24 30 32 48 43 48 44 38 37 35 33 31 31 45 52 40 37 97 100 100 100 100 100 100 100 100 100 100 97 99 100 100 100 100 100 100 100 100 100 100 100 100 98 82
34 22 16 16 14 13 14 17 26 26 31 31 33 29 26 27 25 24 27 32 39 41 78 100 100 100 100 100 100 100 100 97 77 100 100 100 100 100 100 100 100 100 100 100 100 100 97 90 85
19 17 15 14 13 12 11 13 21 22 18 15 15 16 14 16 16 16 16 17 24 53 84 100 100 100 98 100 100 100 90 94 91 96 100 100 100 100 100 100 100 100 99 88 91 97 99 98 87
14 18 15 10 9 8 8 10 11 9 10 10 11 10 10 10 9 10 11 11 16 40 97 100 100 100 100 100 100 80 98 100 82 87 100 100 100 100 100 100 100 100 98 100 97 90 83 88 98
8 9 10 10 10 8 7 9 12 9 8 10 11 11 9 10 12 12 11 12 13 18 40 86 100 100 100 100 100 85 100 97 95 81 100 100 100 100 100 82 82 89 98 100 100 100 97 99 92

GFSSGP_250_rhum_273.txt.gz
RH
79 78 68 55 58 62 68 60 56 49 51 76 70 60 49 48 50 43 54 40 39 30 56 64 66 29 28 22 21 23 18 15 12 12 12 12 14 18 18 18 18 14 11 10 10 9 9 9 10
83 78 69 67 78 85 90 75 45 41 38 42 56 54 64 59 47 50 38 52 71 39 45 53 83 50 29 31 26 29 29 23 17 16 14 14 13 13 14 16 18 19 18 14 12 10 10 11 11
83 99 100 95 90 90 100 84 53 51 45 37 40 48 44 38 42 45 42 46 45 40 47 42 48 98 54 41 36 33 33 28 25 23 19 19 18 17 16 15 14 13 14 16 16 16 14 12 13
90 80 72 64 55 100 97 69 72 69 62 42 38 41 45 44 46 44 46 43 51 46 45 53 50 78 92 41 50 47 28 30 26 30 28 26 23 22 22 20 18 17 15 15 15 19 22 18 15
91 100 93 80 66 80 100 100 90 70 70 56 41 39 47 52 48 50 46 47 43 44 51 55 63 68 90 60 61 74 81 58 40 32 34 29 28 28 26 23 23 25 23 21 21 18 19 23 20
100 100 100 99 100 100 100 100 100 86 85 77 67 61 57 52 49 47 44 41 39 36 35 35 37 39 44 55 55 79 68 67 83 50 54 48 32 37 40 35 31 31 38 36 35 33 28 20 20
100 69 100 100 100 100 100 100 100 93 74 62 57 53 52 52 49 46 45 42 40 38 36 34 36 37 37 39 46 48 71 73 88 99 86 70 60 57 46 49 46 41 45 53 44 42 43 39 38
100 100 100 100 100 100 98 94 78 64 61 51 50 50 51 45 48 46 45 44 43 40 41 40 37 39 42 44 44 50 61 60 67 72 66 94 76 83 58 61 53 46 42 40 57 64 64 63 51
98 92 89 93 98 83 79 71 67 68 60 69 64 65 60 53 48 47 51 52 50 47 46 44 42 42 44 43 53 50 63 78 60 69 47 97 87 89 100 84 74 64 56 49 42 50 57 73 78
96 99 98 64 62 62 49 62 72 71 62 60 67 59 57 58 57 57 60 58 58 56 52 49 46 44 43 44 47 45 45 64 62 63 54 50 50 75 100 99 97 72 79 72 49 46 47 51 64
100 100 95 53 48 57 66 51 50 54 52 60 68 62 60 67 66 67 74 73 70 64 60 56 53 50 48 46 47 50 52 51 56 56 57 53 43 44 45 76 100 100 91 70 79 58 45 54 53
100 100 98 99 91 97 88 77 71 72 57 57 68 75 66 76 82 82 79 76 81 77 71 65 62 58 55 54 53 52 62 63 59 57 69 81 76 63 62 64 69 92 100 95 75 63 63 52 48
100 100 97 84 74 68 71 79 88 76 68 64 68 69 81 88 89 92 87 81 83 80 79 79 71 70 70 68 66 66 67 70 73 76 79 77 84 96 93 85 83 76 89 100 100 98 79 80 57
100 100 96 88 81 71 72 76 79 75 73 68 71 68 74 88 99 100 94 93 90 86 93 96 81 74 72 80 87 85 84 92 94 100 95 89 87 97 99 85 88 92 96 100 100 100 100 100 82
88 88 83 76 68 70 68 67 67 72 68 68 70 75 87 96 91 93 91 88 85 87 88 80 82 81 84 82 89 100 98 97 100 97 99 95 91 83 98 100 100 96 94 100 100 100 100 100 100
86 74 71 70 63 61 54 54 56 53 53 57 60 64 65 77 91 96 88 81 73 75 72 72 78 88 98 96 100 100 99 100 100 96 98 100 100 100 95 96 87 99 100 97 96 92 93 100 100
66 63 61 61 62 54 49 47 52 50 53 49 47 48 51 58 70 84 68 60 62 60 69 76 78 79 84 96 99 100 94 100 100 100 100 100 95 100 100 100 100 82 72 71 80 100 100 89 92
70 62 55 50 51 51 46 51 50 51 49 50 49 50 46 50 56 48 45 45 60 76 83 82 79 77 84 83 100 100 100 100 100 100 100 100 96 99 100 100 100 83 88 97 94 86 100 100 76
58 59 55 50 54 48 59 57 58 63 52 47 46 44 45 42 42 44 50 49 52 61 69 80 86 81 79 100 100 100 100 100 100 100 100 100 100 100 100 100 100 100 100 98 97 90 100 100 93
59 55 54 55 52 51 48 51 69 66 62 54 44 34 30 31 33 42 53 72 72 70 64 78 96 87 97 100 100 100 100 100 100 100 96 98 97 100 100 100 100 100 100 100 100 100 100 100 73
62 64 65 63 61 58 51 48 69 73 56 47 36 26 23 22 24 31 46 63 73 64 66 73 100 100 100 100 100 100 100 100 100 98 100 100 100 80 100 100 100 100 100 100 100 100 100 100 62
62 65 61 53 50 50 51 36 52 46 39 34 26 25 22 22 24 35 54 71 80 91 87 81 86 94 100 100 100 100 100 100 100 99 96 100 100 91 79 100 100 100 100 100 100 100 100 100 55
63 54 49 41 40 38 45 25 30 28 30 30 27 27 21 20 21 34 56 73 78 94 100 100 100 100 100 100 100 100 100 100 100 100 94 99 100 98 75 97 99 99 100 100 79 80 100 72 76
55 46 40 33 29 34 34 30 29 26 24 24 26 27 25 24 24 32 37 43 67 80 99 100 100 100 100 100 100 100 100 100 100 92 95 94 91 82 96 97 85 90 100 99 81 100 72 70 73
44 43 35 29 24 26 28 24 34 32 24 22 21 20 21 14 12 12 16 27 36 49 78 100 100 100 100 100 100 100 100 100 100 100 100 85 87 79 84 97 96 100 86 99 87 80 74 96 96
27 24 23 21 22 26 32 26 21 17 15 13 10 9 12 13 12 10 11 21 23 36 41 46 68 66 100 100 100 100 100 100 100 100 100 64 99 99 100 98 100 100 100 100 100 74 98 100 100
30 25 20 15 14 16 19 17 10 9 8 6 6 6 7 8 8 9 10 11 13 19 25 37 36 46 81 100 100 100 100 100 100 98 85 100 96 86 100 100 95 100 100 100 100 100 100 100 100
16 12 10 9 9 10 10 10 7 6 6 6 7 8 7 8 9 10 9 10 11 12 13 18 26 48 41 58 87 78 100 100 100 77 77 89 71 95 100 100 100 100 100 99 100 100 100 100 100
8 8 8 8 8 7 6 6 6 6 8 8 9 8 9 11 10 9 9 10 12 13 13 14 18 24 34 34 90 92 100 100 96 81 89 92 82 100 100 100 100 100 100 96 100 100 100 100 84
8 8 9 11 9 7 7 9 7 8 10 11 10 10 11 11 11 11 14 13 13 13 15 15 17 56 48 26 38 79 100 100 94 81 100 94 60 72 100 100 100 100 100 100 100 100 100 93 70

GFSSGP_250_rhum_276.txt.gz
RH
85 100 68 52 85 82 87 53 60 46 45 42 37 38 48 50 45 42 39 36 33 33 32 34 44 37 33 38 42 36 31 26 22 19 18 17 16 14 14 13 12 12 12 11 11 12 11 10 9
95 80 91 78 71 80 100 87 81 55 53 54 53 52 50 53 49 47 43 40 37 34 34 34 32 32 30 28 45 44 45 33 30 28 25 23 21 19 17 18 17 14 15 14 13 13 14 14 12
100 100 100 90 94 90 99 100 79 59 65 62 54 55 55 53 56 50 45 42 40 37 34 36 36 36 34 33 32 38 47 44 40 37 36 28 26 24 23 21 21 22 21 20 18 16 14 14 14
100 100 100 100 100 100 100 100 88 65 57 51 48 46 48 50 50 47 45 46 45 39 37 36 36 35 34 36 39 39 39 53 72 39 40 49 33 32 30 27 26 26 25 30 30 27 22 18 18
94 100 91 97 100 100 100 95 80 62 57 59 62 58 55 57 55 53 50 52 52 48 46 43 43 40 38 36 36 40 43 39 71 73 56 91 64 54 43 40 34 27 33 33 35 36 39 35 29
100 100 66 56 60 60 74 70 60 64 61 68 66 61 60 59 57 57 57 57 61 57 54 54 50 48 43 40 38 44 42 36 50 53 43 59 94 90 59 44 51 37 32 29 30 35 43 46 41
100 100 98 59 100 68 50 49 51 50 51 50 56 58 57 59 60 62 64 68 68 68 62 62 58 53 51 46 46 44 44 51 45 46 44 34 82 59 80 92 85 47 46 44 28 33 36 43 51
100 100 100 99 92 96 70 64 68 64 60 54 64 65 65 64 62 63 66 71 69 69 71 69 68 63 58 54 50 51 52 53 57 50 48 46 39 37 47 90 97 96 57 51 42 36 35 34 34
100 99 100 100 100 94 85 95 78 80 77 78 84 72 62 66 67 71 68 72 76 68 70 81 78 75 69 64 59 59 58 58 58 55 55 54 51 51 47 46 60 100 100 84 69 53 49 37 37
100 94 99 100 100 90 93 94 87 86 67 74 77 85 78 75 77 76 80 81 74 82 74 73 78 83 84 75 70 68 68 68 66 71 64 61 61 61 65 69 66 74 98 100 81 80 76 59 48
100 98 80 78 100 100 97 80 81 79 64 71 71 79 84 79 84 84 80 80 78 82 74 81 75 81 95 92 82 75 75 78 79 79 72 87 79 87 89 96 97 84 91 94 100 100 82 62 74
100 95 97 98 91 98 85 80 72 61 61 62 66 64 66 69 65 68 60 52 54 73 68 64 65 64 77 95 89 85 85 88 97 83 100 92 84 90 92 99 100 93 89 100 81 100 100 100 89
100 100 100 89 72 72 76 70 66 65 63 54 54 54 57 57 61 68 50 46 52 52 62 49 68 61 79 89 97 91 92 97 99 99 93 98 93 78 83 90 78 86 78 79 100 100 100 100 100
100 100 95 85 79 76 73 71 63 58 56 53 52 52 55 55 53 57 49 47 42 43 48 79 73 86 97 93 100 90 95 100 100 100 93 99 100 93 99 100 84 86 95 100 69 93 100 94 77
100 96 92 86 89 75 72 64 64 66 59 57 57 59 58 56 52 47 44 45 47 48 51 67 100 100 100 100 100 94 100 100 100 100 100 100 100 100 100 100 100 94 89 78 69 77 85 82 65
94 84 78 77 79 72 70 68 63 62 59 62 64 64 56 53 53 49 51 43 38 38 42 52 76 100 100 100 100 100 100 100 100 100 100 100 100 100 100 100 100 91 90 90 86 77 82 71 93
88 75 72 74 84 83 69 69 75 71 72 73 79 65 53 43 42 44 47 51 46 43 42 53 80 100 100 100 100 100 100 100 100 100 100 100 100 100 100 100 100 100 98 100 84 78 62 79 88
72 67 74 76 75 75 78 79 83 80 80 88 65 55 47 43 46 44 46 43 48 48 48 54 68 97 100 100 100 100 100 100 100 100 100 100 100 100 100 100 100 100 100 100 78 72 64 62 80
75 72 72 80 78 70 84 97 96 87 65 54 49 39 36 40 35 37 34 32 35 42 48 51 60 82 100 100 100 100 100 100 100 100 100 100 99 99 100 100 100 100 100 100 100 80 79 85 71
77 77 75 71 76 69 67 62 72 74 56 45 36 40 33 28 30 28 31 30 32 35 41 49 72 98 100 100 100 100 100 100 100 100 100 97 98 100 95 100 100 100 100 100 100 100 95 100 94
86 84 80 68 65 61 49 51 55 50 43 34 33 31 30 27 26 24 25 30 33 32 29 36 63 94 100 100 100 100 100 100 100 100 100 100 99 100 97 94 100 100 100 100 100 100 100 100 100
89 83 74 66 56 49 46 41 42 34 30 30 27 25 23 20 17 16 21 22 23 24 25 33 52 75 95 100 100 100 100 100 100 100 100 93 100 94 92 100 96 100 96 100 100 100 99 84 100
80 74 70 61 50 42 42 35 29 28 32 32 29 23 22 20 17 14 16 21 18 20 24 26 39 49 58 90 100 100 100 100 100 100 94 100 83 76 92 100 99 99 100 92 98 100 100 100 100
65 53 48 48 43 39 34 29 28 27 29 29 26 23 19 13 10 12 12 12 9 11 13 19 24 28 43 53 98 100 100 100 100 95 94 87 76 74 100 99 71 90 100 100 100 100 100 100 100
44 36 34 34 34 32 29 28 28 25 27 25 20 14 11 8 7 8 8 7 7 7 9 14 19 20 26 36 56 99 100 100 100 97 93 80 72 83 84 68 98 98 100 100 100 100 88 100 100
31 29 28 26 25 25 24 22 20 19 17 16 15 13 9 6 6 6 7 6 7 7 8 9 10 13 23 36 39 54 73 74 94 90 63 56 50 51 82 100 100 99 100 100 100 100 100 100 100
38 34 29 24 22 22 23 22 16 12 11 10 8 7 6 6 6 7 7 8 8 9 11 11 10 11 12 44 52 54 62 63 63 46 40 38 50 100 100 100 94 100 100 100 100 100 100 100 100
27 25 24 24 22 17 13 11 9 8 8 8 7 6 6 6 6 6 8 9 10 10 11 14 13 13 18 35 28 41 45 40 54 63 62 64 84 89 100 100 100 100 100 100 100 100 100 100 100
16 12 12 14 13 12 9 9 8 8 7 7 7 6 6 6 7 9 10 12 13 13 11 13 16 13 14 25 60 28 29 55 68 79 82 84 93 100 100 100 100 100 100 100 100 100 100 100 100
12 10 9 9 8 7 7 8 7 7 8 8 7 6 6 8 10 15 15 13 14 13 12 13 15 16 15 17 58 70 41 45 68 90 100 100 96 100 100 100 100 100 100 100 100 100 97 100 100

GFSSGP_250_rhum_279.txt.gz
RH
100 90 100 100 100 98 90 63 61 52 47 49 47 47 52 53 51 50 49 50 52 46 40 41 39 34 32 31 32 29 33 34 32 34 30 30 26 25 20 18 18 16 18 17 15 12 13 13 12
98 95 100 100 100 99 100 98 62 46 38 37 40 40 48 49 50 54 52 57 60 56 49 48 43 39 37 36 37 35 36 42 41 35 44 36 32 30 29 23 20 20 21 21 23 20 16 14 13
100 58 41 69 72 74 100 60 38 39 41 42 46 46 50 54 55 57 56 58 60 59 53 50 52 50 46 42 41 40 39 48 88 42 36 57 53 42 36 36 29 24 23 22 24 30 33 26 19
100 88 75 63 41 56 54 42 47 46 53 59 57 57 64 62 58 58 58 55 52 65 64 57 60 58 58 52 46 45 44 40 74 64 40 44 92 62 66 48 44 35 30 26 27 30 31 38 44
100 100 100 100 92 78 67 63 55 64 72 73 73 71 75 71 70 68 62 58 59 67 70 68 67 64 62 60 56 51 50 49 45 44 43 38 77 41 50 81 84 70 46 40 28 35 38 39 45
67 100 100 100 100 100 100 88 76 71 80 78 85 78 77 79 80 77 74 69 65 64 68 72 69 74 73 73 65 61 56 55 53 51 50 48 46 43 42 47 88 100 80 59 45 32 34 43 50
99 100 65 66 100 100 100 100 99 91 79 77 73 59 66 69 69 71 72 74 70 68 65 65 66 66 69 71 80 70 64 63 63 60 56 52 50 53 52 50 49 49 94 98 78 61 44 34 31
100 100 100 98 62 53 93 98 100 90 73 74 79 73 67 67 68 62 59 60 63 63 63 64 68 70 72 79 85 88 78 73 69 67 66 64 57 53 56 63 62 64 69 90 100 100 69 63 43
100 100 100 100 96 54 62 69 99 85 75 72 73 69 69 62 60 60 59 56 55 55 59 53 64 79 91 100 93 96 94 85 82 80 79 74 67 64 67 68 70 79 90 72 89 100 100 100 76
63 90 100 100 92 91 100 94 73 63 62 66 69 63 59 59 61 62 58 61 56 52 52 52 66 74 88 99 100 100 100 100 94 87 93 85 100 100 78 73 86 88 100 99 83 97 98 100 100
78 98 100 90 100 100 100 99 84 68 73 76 72 72 68 64 63 61 61 61 54 55 51 52 53 65 91 100 100 100 100 100 100 100 100 100 88 88 95 92 78 90 79 70 74 68 100 100 100
100 100 100 96 100 100 100 92 88 82 76 77 68 68 70 66 62 64 63 61 60 63 59 53 50 51 60 80 100 100 100 100 100 100 100 100 100 93 100 100 100 100 100 92 87 71 84 88 100
97 100 100 100 98 100 89 78 73 67 68 75 64 70 65 62 64 64 64 61 71 65 56 56 59 60 60 64 88 100 100 100 100 100 100 100 100 100 94 100 100 100 100 100 100 83 86 69 94
100 100 100 100 92 90 77 75 69 72 72 74 68 71 64 58 55 56 44 90 86 70 69 63 69 73 84 78 72 76 98 100 100 100 100 100 100 100 100 100 100 100 100 100 100 85 76 72 67
99 97 100 100 94 94 72 76 77 65 66 92 82 79 69 59 58 49 62 74 56 61 62 67 77 81 93 99 100 92 89 89 100 100 100 100 100 100 100 100 100 100 100 100 100 89 100 97 64
85 100 100 99 88 86 79 82 88 80 72 82 76 61 57 56 51 50 57 40 39 44 43 46 46 57 62 67 85 93 94 100 100 100 100 100 100 100 100 100 100 100 100 100 100 100 93 57 59
98 100 100 95 93 86 80 91 93 83 82 72 74 75 66 66 55 44 38 35 34 34 38 36 36 41 46 48 56 72 93 100 100 100 100 100 100 100 100 100 100 100 100 100 100 97 62 99 80
96 88 80 76 77 78 85 99 100 96 86 78 64 60 70 59 40 37 34 29 26 24 26 29 32 36 39 43 51 72 87 100 100 100 100 100 100 100 100 97 100 100 100 100 100 100 100 100 88
62 68 75 74 89 91 96 98 100 96 86 71 61 62 50 41 35 31 29 26 23 20 23 28 30 35 35 39 47 69 100 100 100 100 100 100 100 100 100 100 100 100 100 100 100 100 100 100 100
79 84 87 96 99 94 95 93 94 83 65 56 55 45 35 32 29 27 25 22 21 20 20 20 19 19 26 35 34 44 80 100 100 100 100 100 100 100 100 100 100 100 100 100 100 100 100 100 100
100 100 100 91 91 91 83 85 87 73 52 47 42 36 32 29 26 23 20 17 18 18 16 13 13 9 9 22 33 39 47 62 94 100 100 100 100 100 100 100 100 100 100 100 100 100 100 100 100
99 90 88 88 82 77 76 74 73 61 50 42 36 33 30 27 22 18 17 20 20 17 13 10 9 7 7 10 20 29 31 54 100 100 92 100 100 100 100 100 100 100 100 100 100 97 100 100 100
95 89 84 80 76 70 64 59 52 44 39 34 32 29 24 21 18 17 17 17 16 12 11 8 8 7 7 7 9 17 27 58 69 59 49 67 92 100 100 100 100 100 100 100 97 83 93 100 100
87 79 69 64 62 56 50 45 42 37 36 34 30 25 22 21 21 19 17 13 11 9 8 8 8 8 8 7 8 9 18 32 52 58 51 45 53 96 100 100 100 93 84 74 86 100 100 95 100
64 61 53 47 44 41 40 36 35 35 33 32 26 23 22 20 17 14 12 10 8 8 7 7 7 8 8 9 9 13 37 35 39 43 46 47 47 78 90 80 87 66 65 81 100 100 100 100 100
51 45 42 37 35 34 34 33 34 31 27 26 26 23 20 17 14 10 8 7 7 7 7 6 8 8 9 10 12 11 18 36 42 37 35 32 35 55 60 58 55 57 72 97 98 100 100 100 100
45 43 44 47 47 42 39 35 35 28 24 22 21 17 14 12 11 9 7 7 7 7 7 7 9 10 11 12 12 13 24 47 36 43 65 65 77 68 63 60 78 64 79 97 99 100 100 100 100
49 50 45 41 36 32 30 27 19 17 15 13 12 11 10 9 8 7 8 8 8 7 8 9 10 11 12 12 13 15 21 33 72 41 58 74 88 100 98 87 97 82 82 100 100 100 100 98 100
41 31 27 27 24 23 23 19 18 14 12 11 9 8 7 7 7 7 8 9 9 10 11 11 11 12 13 14 13 15 15 22 67 86 70 71 82 100 100 100 100 100 100 100 100 100 100 100 96
24 22 20 17 15 14 14 14 13 11 10 9 8 8 7 7 7 7 7 11 13 15 16 12 13 14 15 13 15 15 16 19 58 76 70 83 69 70 96 100 100 100 100 100 100 100 100 100 100

GFSSGP_250_rhum_285.txt.gz
RH
100 84 82 63 100 100 55 40 32 45 74 65 61 55 53 55 58 58 56 56 56 60 58 57 56 65 69 73 71 75 77 71 61 58 52 45 46 42 41 44 69 96 95 71 46 36 40 35 39
72 63 67 65 100 100 69 34 25 43 84 74 72 61 55 62 61 63 57 58 58 61 62 65 63 60 60 69 77 84 78 80 79 67 63 56 49 44 45 44 47 48 98 100 80 52 48 41 33
100 100 100 100 100 100 66 35 53 70 94 80 84 72 67 63 66 67 62 58 58 64 66 69 68 66 65 63 68 75 95 85 85 84 75 69 60 52 46 48 46 50 50 63 100 93 70 54 55
88 100 100 100 100 100 86 57 90 96 99 89 85 83 73 60 58 55 54 55 63 66 69 72 75 74 69 68 68 65 66 80 100 99 99 85 72 64 55 50 51 52 57 53 60 98 100 98 89
53 65 100 100 100 67 92 94 100 99 100 91 83 72 76 51 56 57 53 57 59 75 83 84 76 75 72 76 79 76 72 69 73 90 100 100 94 80 80 61 59 50 51 58 60 70 75 100 100
65 81 100 77 52 91 99 100 83 99 100 94 86 72 65 59 52 60 55 65 63 66 69 84 81 77 68 74 77 81 90 86 78 78 90 100 100 97 76 86 65 75 72 58 74 100 86 83 98
100 92 82 90 92 100 100 100 100 92 100 100 98 80 73 62 62 64 53 57 66 69 72 85 76 71 65 68 74 78 77 92 98 91 82 94 100 100 92 98 95 70 100 91 77 84 100 79 82
44 100 100 72 74 88 57 100 98 98 100 99 98 98 84 61 54 60 63 63 58 67 72 78 68 62 65 66 66 67 72 89 99 100 100 97 95 98 100 90 100 97 100 100 100 99 89 74 58
41 100 100 100 88 59 37 97 100 100 100 96 100 98 87 96 62 55 56 52 78 76 70 68 57 61 62 60 60 60 60 65 84 93 100 100 100 100 100 93 92 100 100 99 99 100 100 96 59
42 100 100 100 100 65 43 85 100 100 77 95 100 100 91 77 56 48 35 36 60 73 85 65 62 53 58 55 51 48 45 49 58 70 91 100 100 100 100 100 97 99 100 100 90 100 100 100 100
95 100 99 82 100 100 96 81 83 98 57 76 99 100 80 60 46 45 39 55 62 56 66 84 77 60 52 52 47 41 39 44 46 57 74 80 95 100 100 100 99 100 100 100 87 100 100 100 100
85 62 63 66 70 58 67 68 69 96 70 74 98 78 66 54 50 34 59 65 62 76 76 64 59 67 73 56 42 40 42 48 51 44 61 70 83 95 100 100 100 100 100 100 100 100 100 100 100
46 100 100 100 86 87 77 59 47 51 80 99 80 61 55 50 50 63 68 64 62 65 67 45 38 46 51 54 46 47 51 70 63 46 46 58 72 85 98 100 100 96 99 99 100 100 100 100 100
95 100 100 100 92 75 59 48 41 54 98 96 76 58 41 39 63 96 81 66 58 58 52 40 31 35 38 45 74 74 80 90 92 54 52 46 60 75 89 99 100 100 100 84 89 100 100 100 100
100 100 100 99 84 58 46 40 53 70 92 78 64 50 48 41 58 56 58 54 50 40 36 36 30 28 33 36 60 66 68 79 100 96 61 42 36 54 78 100 100 100 100 99 95 100 100 100 100
100 84 77 79 68 64 58 57 68 91 84 68 62 67 63 48 44 41 45 44 39 37 35 35 30 26 33 31 29 66 100 54 82 100 90 64 44 27 30 75 100 100 86 99 100 100 99 100 100
76 70 62 66 74 82 72 75 79 84 83 75 59 69 65 56 54 44 36 39 40 40 38 38 38 32 28 26 26 27 57 72 86 77 83 98 52 29 29 36 54 85 95 100 82 100 100 98 100
44 52 80 89 78 79 96 100 100 94 85 75 78 76 66 52 49 44 43 40 36 34 31 32 31 28 24 22 21 22 30 55 75 82 77 53 48 39 35 29 49 40 56 75 94 100 100 95 100
92 88 60 65 81 100 100 100 100 88 85 77 67 62 56 55 55 48 39 28 23 20 25 27 30 29 29 23 20 18 19 20 20 19 20 19 62 57 37 26 23 34 52 69 87 94 100 87 100
60 53 78 100 100 98 99 98 87 83 66 59 61 59 53 50 47 38 30 24 20 17 18 22 24 26 30 27 21 16 14 17 17 15 19 16 22 23 33 30 23 14 16 32 76 92 100 96 99
89 100 100 100 100 96 78 94 84 78 64 60 56 55 50 46 40 33 28 22 13 12 12 13 19 18 19 22 19 16 13 13 14 13 14 12 14 32 32 29 37 36 13 16 30 54 92 96 96
100 100 100 94 97 91 79 72 67 68 55 51 54 46 39 34 32 28 24 16 10 8 7 8 12 15 15 15 16 17 15 13 13 13 12 12 16 23 39 39 30 23 33 36 21 23 57 80 93
100 100 97 91 81 66 58 54 55 51 45 39 34 31 30 28 26 23 17 9 6 6 8 9 10 11 10 13 14 12 13 12 12 12 11 11 11 35 48 41 54 100 100 78 16 14 45 75 88
79 70 64 60 63 65 62 57 52 48 51 45 43 38 33 27 21 14 9 7 7 7 9 10 11 12 10 12 15 13 11 11 11 11 11 10 9 8 11 52 61 60 89 95 53 13 28 50 59
57 53 57 63 72 68 60 66 57 60 56 45 38 32 26 17 13 8 7 7 8 9 10 10 12 14 14 11 12 12 11 11 11 10 10 10 10 9 9 10 37 84 64 80 95 96 68 63 71
78 85 78 52 49 49 65 70 57 43 39 34 26 19 15 12 9 9 8 8 8 9 9 10 13 16 18 10 10 11 11 10 10 10 12 10 10 11 11 11 26 95 100 93 90 95 100 100 95
62 55 47 42 44 50 50 25 20 26 23 19 17 15 12 10 10 10 9 9 8 8 8 10 12 12 13 10 11 10 10 11 10 11 10 12 12 14 13 12 41 64 79 100 100 100 93 100 95
49 47 57 69 70 46 31 20 19 18 16 14 14 12 10 11 12 10 11 10 8 7 8 12 13 9 10 11 11 11 8 11 11 12 12 11 14 14 15 14 27 60 73 96 100 100 100 100 98
62 71 82 76 40 20 17 19 16 15 14 14 13 12 12 11 11 12 10 10 8 8 10 13 10 9 11 10 10 10 8 10 13 13 14 14 18 17 17 14 18 57 63 100 100 100 100 100 99
78 49 28 17 15 16 15 17 18 16 16 13 12 13 12 11 10 11 10 10 10 10 11 10 6 6 7 8 7 7 7 8 11 14 16 18 18 19 19 17 19 71 77 94 100 69 100 100 100

GFSSGP_250_rhum_291.txt.gz
RH
72 100 99 89 72 68 95 100 89 97 74 60 69 62 68 70 70 64 50 46 44 41 36 40 48 57 58 56 57 59 55 54 59 64 72 70 67 62 74 80 65 60 43 39 36 54 74 92 100
89 100 100 84 89 78 98 100 82 78 100 99 93 71 71 79 84 63 59 52 51 46 42 40 41 54 62 61 56 57 56 55 58 60 63 68 76 77 69 69 86 93 81 60 53 38 55 68 70
100 100 100 100 100 74 82 93 63 49 79 96 91 75 60 46 42 54 68 65 57 51 41 34 35 49 58 58 53 54 55 55 56 59 62 61 66 80 83 79 77 77 95 99 81 87 73 82 74
100 100 97 68 57 74 71 77 64 45 33 32 30 39 39 44 39 38 68 81 65 51 37 32 34 40 45 44 47 51 56 57 59 58 57 58 63 70 87 88 80 90 88 100 100 100 100 88 97
96 95 95 96 74 58 70 74 62 68 50 56 48 43 47 52 40 35 62 70 53 42 38 39 39 39 39 40 46 49 57 62 59 58 58 55 54 72 91 100 94 85 86 100 100 100 100 100 100
45 46 38 60 96 70 73 62 60 45 37 43 56 60 62 45 36 39 37 36 44 38 41 43 40 44 47 51 51 51 52 56 57 58 54 54 52 58 85 97 100 100 96 100 100 100 100 100 100
32 31 33 35 57 89 81 80 86 44 40 54 62 66 51 38 37 39 43 53 48 40 42 39 38 43 44 47 50 52 50 52 50 42 41 46 61 66 94 99 99 100 100 100 100 100 100 100 100
32 33 30 30 50 79 70 66 80 44 57 94 88 62 47 42 42 54 59 58 59 60 54 48 38 30 33 39 42 47 47 50 43 35 36 48 81 92 100 100 100 100 100 100 94 85 100 100 100
36 35 29 34 63 83 65 48 57 36 62 95 72 50 48 50 61 70 62 50 41 47 58 63 55 42 40 42 44 43 43 47 39 37 43 59 84 100 100 100 100 100 100 100 100 96 79 98 100
32 32 36 38 69 69 79 77 79 63 71 65 58 47 47 65 57 48 48 40 33 37 40 39 38 37 36 38 41 39 36 33 35 34 37 68 97 100 100 100 100 100 100 100 98 100 100 83 84
37 35 36 44 62 99 100 95 80 84 81 55 43 52 75 60 45 49 45 40 39 33 33 33 32 33 33 34 40 38 35 34 39 40 45 56 75 100 100 100 95 98 100 100 100 96 96 100 100
46 60 58 72 91 100 92 67 82 75 48 40 59 72 59 52 61 66 64 54 44 40 39 38 38 37 36 35 32 36 38 45 64 50 100 100 74 97 100 100 75 84 77 97 100 100 93 84 88
58 65 76 95 100 94 76 99 72 47 43 75 76 61 51 56 64 65 62 59 54 46 40 40 40 36 30 26 27 29 29 31 40 86 100 100 100 100 100 100 92 68 84 100 100 100 100 93 83
72 82 92 98 97 86 90 62 48 54 68 78 63 61 74 73 71 69 60 49 42 37 34 34 32 31 30 29 26 21 12 11 14 16 28 100 100 100 100 82 96 100 91 95 95 100 100 100 81
97 100 100 100 100 84 65 67 59 73 83 78 82 87 80 82 79 65 51 40 35 32 33 34 32 31 31 28 22 13 8 8 8 9 10 12 82 100 100 100 91 94 100 100 100 100 100 100 100
89 100 100 99 89 78 72 65 80 91 93 91 84 84 94 71 59 48 41 35 33 33 32 29 32 35 31 17 10 8 8 8 9 10 10 11 21 98 100 100 100 100 84 100 92 99 100 100 100
100 100 100 76 76 77 67 88 93 99 97 88 95 84 68 58 47 40 37 37 39 39 46 54 48 37 24 13 9 8 8 8 9 10 11 12 12 27 100 100 100 98 100 100 100 85 84 100 100
100 100 84 83 82 82 88 92 100 100 96 87 74 69 58 47 39 41 50 55 59 63 60 48 33 18 12 10 10 9 8 9 10 11 12 12 13 12 36 100 100 100 100 100 100 100 100 100 100
97 96 90 91 100 97 88 96 100 100 96 81 70 56 45 45 58 51 54 60 62 57 50 33 19 11 10 9 10 12 11 10 9 10 12 12 12 12 13 76 100 100 100 100 100 88 96 100 100
96 94 100 100 100 100 99 100 100 97 79 68 53 42 40 50 46 43 48 52 54 55 33 17 12 10 9 10 10 10 10 13 11 9 10 12 14 13 13 18 98 100 100 99 100 84 97 90 100
100 100 100 99 100 99 95 99 88 75 63 49 40 44 61 62 48 38 57 66 52 28 15 11 10 9 11 12 11 11 11 10 13 12 9 10 11 12 13 13 16 71 100 100 100 93 94 92 100
100 100 100 100 100 100 99 80 74 60 50 43 48 54 59 57 42 56 67 53 22 12 10 9 9 10 11 12 15 14 13 13 12 11 10 9 10 10 12 12 12 14 56 87 100 100 85 72 84
100 98 100 100 100 95 80 68 56 49 44 45 58 67 66 60 63 55 42 18 11 9 9 8 9 9 9 11 13 16 14 14 12 11 11 9 9 10 10 11 13 11 13 24 36 34 37 87 97
93 98 98 91 89 76 63 55 49 44 48 65 82 78 64 57 44 35 17 10 9 8 8 8 8 7 7 9 11 14 15 14 15 13 10 12 11 9 10 11 11 12 12 14 16 19 22 22 21
83 85 89 85 77 69 60 55 50 59 66 87 86 69 56 46 33 17 10 9 9 9 9 10 10 9 9 8 9 9 10 11 13 14 12 8 9 11 8 10 11 12 12 13 15 17 16 18 19
83 89 86 76 64 62 63 63 63 72 92 98 68 50 44 32 26 10 8 9 9 9 10 12 11 11 9 9 9 8 6 5 5 6 9 9 8 9 9 9 10 11 12 13 15 15 16 17 18
83 74 71 68 59 69 93 83 73 94 90 61 53 37 34 31 14 9 8 9 8 9 12 10 10 10 10 8 6 4 4 4 4 4 5 6 6 5 8 8 9 10 12 14 14 16 15 16 18
68 58 55 52 62 76 96 99 100 74 53 45 36 35 29 11 10 9 9 9 8 10 9 9 9 10 7 5 4 4 3 2 2 3 4 5 5 4 7 10 10 11 12 14 14 15 16 15 15
63 58 60 66 92 97 97 97 76 55 47 41 38 24 12 10 9 10 11 11 10 9 10 9 9 7 5 4 3 2 2 2 2 2 3 3 4 4 5 9 11 13 14 13 15 12 15 14 12
53 58 54 92 100 98 89 67 56 51 46 41 23 12 11 10 12 15 14 14 13 12 10 10 8 5 4 3 2 2 2 2 2 2 3 3 3 4 4 9 12 12 12 12 12 12 13 13 10

GFSSGP_250_rhum_294.txt.gz
RH
86 71 80 95 100 100 100 86 66 53 42 31 26 30 38 47 47 38 34 31 27 29 30 34 36 37 35 34 36 38 42 46 47 50 56 56 54 56 58 64 72 68 82 92 90 71 68 73 84
86 89 100 84 72 79 83 78 63 58 58 42 39 40 41 60 50 39 36 36 30 32 36 38 38 37 38 38 37 39 41 43 45 51 50 53 48 48 55 60 76 78 67 83 96 100 97 95 100
100 96 90 71 67 64 68 64 58 57 50 42 39 44 64 66 46 37 41 40 43 48 49 44 36 35 39 36 37 40 44 47 47 48 50 50 44 41 49 66 71 88 83 75 89 100 100 100 99
100 68 55 59 77 83 70 62 55 47 33 27 28 56 87 64 57 55 49 47 53 54 52 51 44 37 34 33 35 37 43 47 47 46 48 46 41 37 44 71 85 99 100 93 84 99 100 100 100
53 43 34 36 39 38 74 68 50 39 36 30 34 70 68 59 58 73 72 62 47 38 39 42 41 44 36 37 41 43 46 45 46 45 41 40 38 38 43 64 87 100 100 99 100 100 100 100 100
48 33 32 33 31 35 74 76 58 49 47 31 40 67 65 52 58 63 61 54 44 37 35 37 39 34 34 38 40 37 37 39 40 42 39 37 35 37 51 75 100 100 100 100 100 100 98 100 100
62 35 31 30 31 39 67 70 59 65 69 33 59 71 48 45 57 60 50 41 38 40 43 45 42 38 33 34 34 36 40 39 34 37 35 38 35 35 43 86 100 100 100 100 100 100 100 97 100
48 40 32 28 32 40 47 67 78 72 59 58 88 51 43 53 61 54 43 36 34 37 38 45 51 46 42 38 35 36 38 35 33 38 41 35 51 50 41 83 100 100 100 100 99 90 100 100 100
40 33 31 31 35 44 55 65 80 68 34 52 65 43 49 57 60 45 38 34 35 36 41 45 43 38 33 31 30 34 32 34 34 35 34 51 71 82 44 54 98 100 100 100 100 100 98 83 100
40 34 28 32 42 51 62 77 86 60 37 57 46 49 60 67 55 46 41 38 40 42 42 41 34 31 31 30 30 28 27 28 26 21 20 31 33 72 74 52 71 100 100 100 100 100 100 100 90
37 28 28 37 49 67 80 78 70 64 64 56 51 66 78 71 66 60 55 59 65 59 49 38 33 30 29 28 24 28 31 27 20 13 10 11 15 35 60 57 70 92 100 100 100 100 100 100 100
39 34 38 48 61 71 80 76 56 57 57 56 65 89 88 78 72 76 78 78 64 52 40 36 35 33 28 28 29 27 25 21 18 13 12 11 13 19 91 52 57 89 100 100 100 100 100 100 100
42 42 50 73 79 74 100 80 62 63 57 69 86 91 78 74 74 74 72 63 52 40 36 35 39 32 30 31 34 34 23 16 11 10 10 10 13 17 58 100 76 63 84 100 100 100 100 100 100
43 44 50 46 50 77 72 51 54 58 81 96 84 73 72 84 80 72 66 56 42 36 35 38 37 37 35 39 35 28 14 10 10 9 9 10 11 13 18 46 100 99 72 83 100 98 100 100 100
48 48 51 51 57 84 76 68 64 88 100 85 78 87 88 82 79 69 58 44 37 38 41 58 57 53 49 47 31 15 12 10 9 9 10 11 11 13 16 19 55 100 100 98 69 64 50 94 100
56 57 54 60 78 90 88 92 89 98 96 94 95 93 84 72 66 58 46 40 42 44 68 72 63 57 43 24 14 11 10 10 10 10 11 12 12 13 14 16 23 90 100 100 86 63 49 32 99
65 61 62 60 64 92 100 99 99 100 100 100 88 76 70 66 56 46 40 37 41 58 83 66 54 39 21 14 11 9 9 10 11 11 11 11 13 13 14 15 16 25 99 100 100 82 73 97 69
76 72 70 74 91 100 100 100 100 100 100 91 77 70 68 59 51 43 36 49 70 99 69 53 38 27 20 14 9 9 10 11 10 10 10 10 11 12 12 14 16 19 34 100 100 100 100 92 100
100 100 100 100 100 93 100 100 100 99 82 77 74 72 59 52 44 39 54 69 86 71 49 37 30 26 15 9 9 11 11 10 10 10 9 9 9 10 11 13 14 17 20 85 100 100 100 100 100
100 100 100 90 100 100 100 100 98 86 76 77 74 63 54 44 41 49 85 99 58 42 35 32 31 13 10 10 12 15 15 12 11 10 11 10 10 9 10 11 13 14 18 26 99 100 100 100 100
100 98 100 100 100 100 100 96 83 81 78 71 58 48 40 41 56 64 80 67 39 32 31 33 15 10 9 10 11 12 16 16 14 12 10 9 8 10 10 10 11 13 15 18 61 100 100 100 100
99 100 100 100 98 88 76 77 79 75 63 54 44 38 40 53 54 78 71 38 26 29 30 15 9 9 9 10 9 8 10 12 17 19 19 13 10 8 8 9 10 12 13 16 26 87 98 100 100
100 100 100 90 84 79 78 80 82 66 56 48 41 36 48 57 62 60 50 27 35 26 15 10 9 9 10 11 9 9 8 9 8 9 13 15 12 8 7 7 8 11 12 14 16 52 94 99 100
100 88 81 81 75 78 88 76 61 54 51 46 42 44 53 78 76 60 28 30 31 16 11 9 10 11 11 10 11 10 8 8 9 7 6 6 8 6 6 6 6 9 11 13 14 25 80 98 100
87 79 76 74 80 86 81 65 52 47 42 36 50 78 98 66 50 39 29 35 16 11 10 10 11 11 11 11 11 11 8 6 5 5 4 4 4 5 4 4 6 7 9 11 12 14 63 83 99
75 77 78 81 82 76 65 54 47 42 39 54 80 79 72 59 42 32 38 18 14 10 10 10 10 11 11 11 10 9 5 4 4 3 2 3 3 3 4 3 4 7 8 10 11 12 25 85 88
72 80 77 77 72 62 54 48 36 51 49 69 76 70 62 37 34 37 24 16 11 10 10 11 11 11 10 10 9 6 4 3 2 2 2 2 2 2 3 3 2 5 8 10 11 12 12 62 80
72 73 70 65 61 54 48 42 48 38 58 69 70 68 38 37 45 30 15 12 10 10 10 11 10 10 8 8 5 4 3 2 2 2 2 2 2 2 2 3 2 4 7 10 11 11 13 14 48
78 66 62 60 57 55 50 45 52 74 82 84 63 44 43 43 22 18 13 12 10 11 11 12 11 9 9 6 5 3 3 2 2 2 2 2 2 2 2 3 3 3 6 10 11 11 11 12 12
66 70 61 64 65 52 49 63 79 95 84 70 50 46 38 23 17 12 12 12 12 11 11 13 11 10 8 5 4 3 2 2 2 2 2 2 2 2 3 3 3 3 5 9 11 12 11 12 12